Naples, FL

3:09 AM EST on November 23, 2017 (GMT -0500)
Naples Municipal

Weather History for KAPF - December, 2013

Change the Weather History Date:

Thursday, December 26, 2013

  Actual Average Record
Temperature  
Mean Temperature 73 °F 65 °F  
Max Temperature 81 °F 76 °F 87 °F (1951)
Min Temperature 65 °F 55 °F 27 °F (1983)
Degree Days  
Heating Degree Days 0 2  
Month to date heating degree days 1 47  
Since 1 July heating degree days 8 61  
Cooling Degree Days 8 3  
Month to date cooling degree days 196 107  
Year to date cooling degree days 4139 3926  
Growing Degree Days 22 (Base 50)    
Moisture  
Dew Point 65 °F    
Average Humidity 80    
Maximum Humidity 97    
Minimum Humidity 62    
Precipitation  
Precipitation 0.00 in 0.05 in 0.80 in (2001)
Month to date precipitation 0.09 1.26  
Year to date precipitation 49.09 51.70  
Snow  
Snow 0.00 in - - ()
Month to date snowfall 0.0  
Since 1 July snowfall 0.0  
Snow Depth 0.00 in    
Sea Level Pressure  
Sea Level Pressure 30.11 in    
Wind  
Wind Speed 8 mph (ENE)    
Max Wind Speed 15 mph    
Max Gust Speed 21 mph    
Visibility 10 miles    
Events      
T = Trace of Precipitation, MM = Missing Value Source: NWS Daily Summary

Daily Weather History Graph

Daily Weather History Graph

Search for Another Location

Airport or City:

Trip Planner

Search our weather history database for the weather conditions in past years. The results will help you decide how hot, cold, wet, or windy it might be!

Date:

Astronomy

Dec. 26, 2013 Rise Set
Actual Time 7:12 AM EST 5:43 PM EST
Civil Twilight 6:47 AM EST 6:08 PM EST
Nautical Twilight 6:18 AM EST 6:37 PM EST
Astronomical Twilight 5:50 AM EST 7:05 PM EST
Moon 1:04 AM EST (12/26) 12:55 PM EST (12/26)
Length of Visible Light 11h 21m
Length of Day
10h 30m
Last Quarter, 38% of the Moon is Illuminated
Dec 26
Last Quarter
Jan 1
New
Jan 7
First Quarter
Jan 15
Full
Jan 24
Last Quarter

Hourly Weather History & Observations

Time (EST) Temp. Heat Index Dew Point Humidity Pressure Visibility Wind Dir Wind Speed Gust Speed Precip Events Conditions
12:53 AM 64.9 °F - 62.1 °F 90% 30.12 in 10.0 mi ENE 8.1 mph - N/A   Clear
1:53 AM 64.9 °F - 62.1 °F 90% 30.11 in 10.0 mi ENE 8.1 mph - N/A   Clear
2:53 AM 64.9 °F - 61.0 °F 87% 30.10 in 10.0 mi NE 8.1 mph - N/A   Partly Cloudy
3:53 AM 66.0 °F - 62.1 °F 87% 30.10 in 10.0 mi NE 6.9 mph - N/A   Overcast
4:53 AM 66.9 °F - 62.1 °F 84% 30.09 in 10.0 mi ENE 6.9 mph - N/A   Overcast
5:53 AM 66.0 °F - 62.1 °F 87% 30.10 in 10.0 mi ENE 8.1 mph - N/A   Overcast
6:53 AM 66.0 °F - 62.1 °F 87% 30.12 in 10.0 mi NNE 6.9 mph - N/A   Overcast
7:53 AM 66.0 °F - 63.0 °F 90% 30.14 in 7.0 mi NE 9.2 mph - N/A   Overcast
8:53 AM 68.0 °F - 63.0 °F 84% 30.16 in 10.0 mi NE 8.1 mph - N/A   Mostly Cloudy
9:53 AM 71.1 °F - 64.0 °F 78% 30.17 in 10.0 mi ENE 9.2 mph - N/A   Overcast
10:53 AM 72.0 °F - 64.9 °F 78% 30.17 in 10.0 mi ENE 9.2 mph - N/A   Overcast
11:53 AM 73.0 °F - 66.0 °F 79% 30.15 in 10.0 mi ENE 9.2 mph - N/A   Overcast
12:53 PM 78.1 °F - 68.0 °F 71% 30.10 in 10.0 mi ENE 10.4 mph - N/A   Clear
1:53 PM 79.0 °F - 66.9 °F 66% 30.08 in 10.0 mi East 10.4 mph - N/A   Scattered Clouds
2:53 PM 80.1 °F 82.3 °F 66.9 °F 64% 30.05 in 10.0 mi East 9.2 mph - N/A   Scattered Clouds
3:53 PM 79.0 °F - 64.9 °F 62% 30.05 in 10.0 mi ENE 11.5 mph - N/A   Mostly Cloudy
4:53 PM 79.0 °F - 66.9 °F 66% 30.06 in 10.0 mi ENE 9.2 mph - N/A   Mostly Cloudy
5:53 PM 75.9 °F - 66.9 °F 74% 30.08 in 10.0 mi ENE 9.2 mph - N/A   Clear
6:53 PM 73.0 °F - 68.0 °F 84% 30.09 in 10.0 mi ENE 6.9 mph - N/A   Clear
7:53 PM 72.0 °F - 66.9 °F 84% 30.10 in 10.0 mi NE 5.8 mph - N/A   Clear
8:53 PM 70.0 °F - 66.9 °F 90% 30.12 in 10.0 mi ENE 5.8 mph - N/A   Clear
9:53 PM 69.1 °F - 66.9 °F 93% 30.14 in 10.0 mi NE 4.6 mph - N/A   Clear
10:53 PM 70.0 °F - 68.0 °F 93% 30.15 in 10.0 mi NE 4.6 mph - N/A   Overcast
11:53 PM 70.0 °F - 66.9 °F 90% 30.14 in 10.0 mi NE 9.2 mph - N/A   Overcast